Location: Góry Miechowskie
(50.3599°N, 20.1803°E)
Time: 03:27:22
(UTC+00:00)

Transit 2A Rocket - Pass Details

Date: 20 September 2024
Orbit: 582 x 908 km, 66.7° (Epoch: 10 October)

Event Time Altitude Azimuth Distance (km) Brightness Sun altitude
Exits shadow 01:01:29 - 311° (NW) 2,701 7.8 -29.7°
Reaches altitude 10° 01:01:56 10° 314° (NW) 2,600 7.7 -29.6°
Maximum altitude 01:05:45 17° 353° (N) 2,129 7.6 -29.2°
Drops below altitude 10° 01:09:31 10° 33° (NNE) 2,549 8.6 -28.8°
Sets 01:12:57 0° 53° (NE) 3,442 9.6 -28.4°
